Location: Unspecified
(0.0000°N, 0.0000°E)
Time: 04:56:36
(UTC+02:00)

Cosmos 1933 - Visible Passes

Search period start: 30 July 2014 00:00
Search period end: 09 August 2014 00:00
Orbit: 557 x 572 km, 82.5° (Epoch: 29 July)

Date Brightness Start Highest point End Pass type
(mag) Time Alt. Az. Time Alt. Az. Time Alt. Az.
30 Jul 5.1 07:36:03 10° SSE 07:39:52 38° E 07:43:40 10° NNE visible
31 Jul 4.4 07:36:12 10° S 07:40:11 51° E 07:44:09 10° NNE visible
01 Aug 3.8 07:36:24 10° S 07:40:29 70° E 07:44:34 10° N visible
02 Aug 3.4 07:36:41 10° S 07:40:47 86° W 07:44:54 10° N visible
03 Aug 3.4 07:37:02 10° SSW 07:41:06 63° W 07:45:09 10° N visible
04 Aug 3.7 07:37:27 10° SSW 07:41:24 46° W 07:45:20 10° NNW visible
05 Aug 4.0 07:37:56 10° SSW 07:41:41 35° W 07:45:26 10° NNW visible
06 Aug 4.4 07:38:32 10° SW 07:41:59 26° W 07:45:27 10° NNW visible
07 Aug 6.5 06:03:59 10° ESE 06:05:51 13° E 06:07:42 10° ENE visible
07 Aug 4.7 07:39:14 10° SW 07:42:17 20° W 07:45:20 10° NW visible
08 Aug 6.2 06:03:27 10° SE 06:06:08 17° E 06:08:48 10° NE visible
08 Aug 5.0 07:40:07 10° WSW 07:42:34 15° W 07:45:01 10° NW visible
